Starlink 32305

operational
NORAD ID: 61523 Int'l Des: 2024-183 Owner: SPXS Country: US Constellation: starlink
LEOCIRCULAR

Über Starlink 32305

Beschreibung wird geladen...

Live-Position

3D-Globus wird geladen...

Nächste Überflüge

Höhenverlauf

Altitude vs Time

uPlot chart will show altitude changes over time

Zweizeiliger Elementsatz

1 61523U 24183Q 25352.91135483 .00000286 00000-0 21783-4 0 9997
2 61523 53.1598 157.7403 0001102 99.0845 261.0280 15.30189976 67287
Epoch: 18. Dez. 2025 • Age: 7 hours

Aktueller Status

Höhe 477.2 km
Geschwindigkeit 7.63 km/s
Subsatellitenpunkt 35.25°N, 145.71°E
Startdatum 15. Okt. 2024
Alter 1.1 years
Typ internet

Technische Details

Klassifizierung Payload
Masse 730.00 kg
Trockenmasse 700.00 kg
Gesamtmasse 730.00 kg
Länge 0.30 m
Durchmesser 4.10 m
Spannweite 29.00 m
Form Box + pan
Hersteller SPXS
Bus-Typ Starlink V2M
Phasenstatus In Orbit
Besitzer/Staat SPXS/US

Große Konstellationen

Loading constellations...